Regional Weather Roundup
Issued by NWS

Home | Current Version | Previous Version | Graphics & Text | Print | Product List | Glossary On
Versions: 1 2 3 4 5 6 7 8 9 10 11 12 13 14 15 16 17 18 19 20 21 22 23 24 25 26 27 28 29 30 31 32 33 34 35 36 37 38 39 40 41 42 43 44 45 46 47 48 49 50
000
ASUS43 KFSD 091410
RWRSD

WEATHER ROUNDUP FOR SOUTH DAKOTA
NATIONAL WEATHER SERVICE SIOUX FALLS SD
800 AM CST FRI DEC 09 2016

NOTE: "FAIR" INDICATES FEW OR NO CLOUDS BELOW 12,000 FEET WITH NO
SIGNIFICANT WEATHER AND/OR OBSTRUCTIONS TO VISIBILITY.


SDZ001>005-009-010-012>017-091500-
NORTHWEST AND NORTH CENTRAL SOUTH DAKOTA

CITY           SKY/WX    TMP DP  RH WIND       PRES   REMARKS
BUFFALO          N/A     -6 -10  83 NE8       30.28S WCI -21
FAITH            N/A     -2  -7  79 NE6       30.42R WCI -14
MOBRIDGE       CLOUDY    -4 -10  75 NW9       30.51S WCI -20
$$

SDZ012>016-024>037-041>051-057-063-072>074-091500-
SOUTHWEST AND SOUTH CENTRAL SOUTH DAKOTA

CITY           SKY/WX    TMP DP  RH WIND       PRES   REMARKS
RAPID CTY ARPT LGT SNOW  -2  -7  79 N13       30.31S WCI -20
PIERRE         CLOUDY     2  -3  80 E8        30.50S WCI -12
CUSTER         FLURRIES   4  -1  80 CALM      30.03S
ELLSWORTH AFB  FLURRIES  -2  -7  82 N8        30.30  WCI -17
PHILIP         FLURRIES   2  -2  83 E13       30.42F WCI -15
PINE RIDGE     FLURRIES   9   6  88 NE5       30.24R WCI   1
SPEARFISH      CLOUDY    -6 -11  77 CALM      30.26R
WINNER         CLOUDY     5   0  79 SE10      30.47F WCI -10
$$

SDZ004>011-016>023-039-040-091500-
NORTHEAST SOUTH DAKOTA

CITY           SKY/WX    TMP DP  RH WIND       PRES   REMARKS
ABERDEEN       CLOUDY    -6 -11  79 NW6       30.58S WCI -19
WATERTOWN      CLOUDY    -4  -8  83 NW7       30.50R WCI -18
BROOKINGS      CLOUDY    -3  -7  82 W5        30.53R WCI -13
SISSETON         N/A     -4  -9  79 NW3       30.56S
$$

SDZ017-020-022-023-036>040-048>070-091500-
SOUTHEAST SOUTH DAKOTA

CITY           SKY/WX    TMP DP  RH WIND       PRES   REMARKS
SIOUX FALLS    CLOUDY     1  -3  83 W6        30.56R WCI -10
HURON          CLOUDY     0  -4  83 N3        30.59S
CHAMBERLAIN    CLOUDY     4  -1  82 E3        30.53S
MITCHELL       CLOUDY     1  -3  83 CALM      30.60R
YANKTON        CLOUDY     1  -4  78 CALM      30.58S
$$

ABBREVIATIONS USED IN REMARKS
   TC - TEMPERATURE IN CELSIUS
  WCI - WIND CHILL INDEX
   HX - HEAT INDEX
  VSB - VISIBILITY




USA.gov is the U.S. government's official web portal to all federal, state and local government web resources and services.